Pineville, WV

11:24 PM EST on December 08, 2019 (GMT -0500)
Pineville

Weather History for KI16 - June, 2019

Change the Weather History Date:

Thursday, June 6, 2019

  Actual Average (KBKW) Record (KBKW)
Temperature  
Mean Temperature 72 °F -  
Max Temperature 82 °F 74 °F 91 °F (1925)
Min Temperature 62 °F 54 °F 38 °F (1926)
Cooling Degree Days 7    
Growing Degree Days 22 (Base 50)    
Moisture  
Dew Point 66 °F    
Average Humidity 85    
Maximum Humidity 98    
Minimum Humidity 56    
Precipitation  
Precipitation 0.00 in - - ()
Sea Level Pressure  
Sea Level Pressure 29.95 in    
Wind  
Wind Speed - (North)    
Max Wind Speed -    
Max Gust Speed -    
Visibility 6 miles    
Events Rain    
Averages and records for this station are not official NWS values.
T = Trace of Precipitation, MM = Missing Value Source: NWS Daily Summary

Daily Weather History Graph

Daily Weather History Graph

Search for Another Location

Airport or City:

Astronomy

Jun. 06, 2019 Rise Set
Actual Time 6:05 AM EDT 8:44 PM EDT
Civil Twilight 5:34 AM EDT 9:15 PM EDT
Nautical Twilight 4:55 AM EDT 9:54 PM EDT
Astronomical Twilight 4:12 AM EDT 10:37 PM EDT
Moon 9:11 AM EDT (6/6) No Moon Set
Length of Visible Light 15h 41m
Length of Day
14h 39m
Waxing Crescent, 13% of the Moon is Illuminated
Jun 6
Waxing Crescent
Jun 10
First Quarter
Jun 17
Full
Jun 25
Last Quarter
Jul 2
New

Hourly Weather History & Observations

Time (EDT) Temp. Heat Index Dew Point Humidity Pressure Visibility Wind Dir Wind Speed Gust Speed Precip Events Conditions
12:15 AM 67.1 °F - 66.2 °F 97% 29.97 in 3.0 mi North - - N/A   Overcast
12:35 AM 67.1 °F - 66.2 °F 97% 29.95 in 2.5 mi North - - N/A   Mostly Cloudy
12:55 AM 66.9 °F - 66.0 °F 97% 29.95 in 2.0 mi North - - N/A   Mostly Cloudy
1:15 AM 66.6 °F - 65.7 °F 97% 29.95 in 2.5 mi North - - N/A   Scattered Clouds
1:35 AM 66.2 °F - 65.3 °F 97% 29.95 in 2.5 mi North - - N/A   Clear
1:55 AM 66.4 °F - 65.5 °F 97% 29.94 in 2.0 mi North - - N/A   Clear
2:15 AM 66.2 °F - 65.3 °F 97% 29.93 in 1.8 mi North - - N/A   Mist
2:35 AM 65.5 °F - 64.6 °F 97% 29.93 in 2.0 mi North - - N/A   Clear
2:55 AM 65.3 °F - 64.4 °F 97% 29.93 in 3.0 mi North - - N/A   Clear
3:15 AM 64.8 °F - 63.9 °F 97% 29.93 in 2.5 mi North - - N/A   Clear
3:35 AM 64.0 °F - 63.1 °F 97% 29.93 in 3.0 mi North - - N/A   Scattered Clouds
3:55 AM 63.9 °F - 63.0 °F 97% 29.93 in 3.0 mi North - - N/A   Clear
4:15 AM 63.7 °F - 63.0 °F 97% 29.92 in 4.0 mi North - - N/A   Mostly Cloudy
4:35 AM 63.7 °F - 62.8 °F 97% 29.92 in 4.0 mi North - - N/A   Overcast
4:55 AM 63.7 °F - 62.8 °F 97% 29.92 in 3.0 mi North - - N/A   Scattered Clouds
5:15 AM 63.5 °F - 62.8 °F 97% 29.92 in 3.0 mi North - - N/A   Clear
5:35 AM 63.1 °F - 62.4 °F 97% 29.93 in 3.0 mi North - - N/A   Scattered Clouds
5:55 AM 63.3 °F - 62.6 °F 97% 29.94 in 4.0 mi North - - N/A   Scattered Clouds
6:15 AM 62.4 °F - 61.7 °F 97% 29.94 in 3.0 mi North - - N/A   Scattered Clouds
6:35 AM 62.4 °F - 61.7 °F 97% 29.94 in 4.0 mi North - - N/A   Scattered Clouds
6:55 AM 63.1 °F - 62.6 °F 98% 29.95 in 4.0 mi North - - N/A   Mostly Cloudy
7:15 AM 63.5 °F - 62.8 °F 97% 29.96 in 3.0 mi North - - N/A   Overcast
7:35 AM 63.7 °F - 63.0 °F 97% 29.96 in 2.5 mi North - - N/A   Overcast
7:55 AM 64.4 °F - 63.7 °F 98% 29.97 in 5.0 mi North - - N/A   Overcast
8:15 AM 65.7 °F - 64.8 °F 97% 29.97 in 7.0 mi North - - N/A   Mostly Cloudy
8:35 AM 67.8 °F - 66.4 °F 95% 29.98 in 10.0 mi North - - N/A   Mostly Cloudy
8:55 AM 68.0 °F - 66.2 °F 94% 29.98 in 10.0 mi North - - N/A   Overcast
9:15 AM 70.5 °F - 64.8 °F 82% 29.99 in 10.0 mi North - - N/A   Overcast
9:35 AM 72.3 °F - 65.3 °F 78% 29.99 in 10.0 mi North - - N/A   Mostly Cloudy
9:55 AM 73.0 °F - 65.3 °F 77% 29.98 in 10.0 mi North - - N/A   Mostly Cloudy
10:15 AM 74.1 °F - 66.0 °F 76% 29.98 in 10.0 mi North - - N/A   Scattered Clouds
10:35 AM 74.5 °F - 65.8 °F 74% 29.98 in 10.0 mi North - - N/A   Mostly Cloudy
10:55 AM 75.7 °F - 65.7 °F 71% 29.98 in 10.0 mi North - - N/A   Overcast
11:15 AM 75.4 °F - 65.1 °F 70% 29.98 in 10.0 mi North - - N/A   Overcast
11:35 AM 76.8 °F - 64.4 °F 65% 29.99 in 10.0 mi North - - N/A   Mostly Cloudy
11:55 AM 77.0 °F - 65.5 °F 67% 29.99 in 10.0 mi North - - N/A   Overcast
12:15 PM 77.0 °F - 66.7 °F 70% 29.99 in 10.0 mi North - - N/A   Overcast
12:35 PM 77.5 °F - 66.0 °F 68% 29.98 in 10.0 mi North - - N/A   Mostly Cloudy
12:55 PM 79.3 °F - 65.5 °F 62% 29.98 in 10.0 mi North - - N/A   Overcast
1:15 PM 79.2 °F - 64.8 °F 61% 29.97 in 10.0 mi North - - N/A   Mostly Cloudy
1:35 PM 79.3 °F - 65.3 °F 62% 29.97 in 10.0 mi North - - N/A   Scattered Clouds
2:00 PM 79.5 °F - 65.5 °F 62% 29.97 in 10.0 mi North - - N/A   Clear
2:15 PM 81.1 °F 83.2 °F 66.0 °F 60% 29.96 in 10.0 mi North - - N/A   Clear
2:35 PM 79.7 °F - 65.7 °F 62% 29.95 in 10.0 mi North - - N/A   Scattered Clouds
2:55 PM 79.7 °F - 65.7 °F 62% 29.95 in 10.0 mi North - - N/A   Scattered Clouds
3:15 PM 82.6 °F 84.5 °F 65.7 °F 56% 29.94 in 10.0 mi North - - N/A   Scattered Clouds
3:35 PM 80.4 °F 82.6 °F 66.2 °F 62% 29.94 in 10.0 mi North - - N/A   Mostly Cloudy
3:55 PM 80.2 °F 82.2 °F 65.7 °F 61% 29.94 in 10.0 mi North - - N/A   Scattered Clouds
4:15 PM 82.4 °F 84.2 °F 65.1 °F 56% 29.93 in 10.0 mi North - - N/A   Clear
4:35 PM 80.6 °F 82.9 °F 67.1 °F 63% 29.92 in 10.0 mi North - - N/A   Clear
4:55 PM 81.9 °F 83.9 °F 65.7 °F 58% 29.92 in 10.0 mi North - - N/A   Clear
5:15 PM 80.6 °F 82.7 °F 66.2 °F 61% 29.92 in 10.0 mi North - - N/A   Clear
5:35 PM 77.9 °F - 67.5 °F 70% 29.92 in 10.0 mi North - - N/A   Scattered Clouds
5:55 PM 76.3 °F - 68.7 °F 77% 29.92 in 10.0 mi North - - N/A   Mostly Cloudy
6:15 PM 75.4 °F - 68.7 °F 80% 29.92 in 10.0 mi North - - N/A   Mostly Cloudy
6:35 PM 75.2 °F - 69.4 °F 82% 29.92 in 10.0 mi North - - N/A   Mostly Cloudy
6:55 PM 74.5 °F - 67.8 °F 80% 29.93 in 10.0 mi North - - N/A   Overcast
7:15 PM 69.4 °F - 66.7 °F 91% 29.93 in 0.5 mi North - - N/A Rain Heavy Rain
7:35 PM 68.9 °F - 67.5 °F 95% 29.94 in 1.2 mi North - - N/A Rain Heavy Rain
7:55 PM 68.9 °F - 67.8 °F 96% 29.95 in 3.0 mi North - - N/A   Drizzle
8:15 PM 68.7 °F - 67.8 °F 97% 29.96 in 5.0 mi North - - N/A Rain Light Rain
8:35 PM 68.5 °F - 67.5 °F 96% 29.96 in 4.0 mi North - - N/A Rain Light Rain
8:55 PM 68.9 °F - 67.6 °F 96% 29.96 in 4.0 mi North - - N/A Rain Light Rain
9:15 PM 68.4 °F - 67.3 °F 96% 29.97 in 4.0 mi North - - N/A Rain Rain
9:35 PM 68.4 °F - 67.5 °F 97% 29.97 in 2.0 mi North - - N/A   Drizzle
9:55 PM 68.2 °F - 67.3 °F 97% 29.97 in 2.5 mi North - - N/A   Drizzle
10:15 PM 68.0 °F - 67.1 °F 97% 29.97 in 3.0 mi North - - N/A Rain Rain
10:35 PM 68.0 °F - 67.1 °F 97% 29.98 in 4.0 mi North - - N/A Rain Rain
10:55 PM 67.5 °F - 66.6 °F 97% 29.98 in 3.0 mi North - - N/A   Drizzle
11:15 PM 67.5 °F - 66.6 °F 97% 29.98 in 2.5 mi North - - N/A   Drizzle
11:35 PM 67.1 °F - 66.2 °F 97% 29.97 in 4.0 mi North - - N/A   Light Drizzle
11:55 PM 67.5 °F - 66.6 °F 97% 29.97 in 4.0 mi North - - N/A   Drizzle